Wind_Speed
62 67 71 78 77 69 64 52 60 48 42 43 43 38 28 24 21 16 14 13 18 21 38 54 52 43 25 25 25 33 42 51 56 54 52 50 49 46 44 42 41 40 39 36 34 33 33
62 67 70 76 73 70 63 46 48 46 43 39 37 31 26 21 16 10 6 8 16 25 28 51 61 38 30 21 30 31 39 49 52 51 51 49 47 46 43 42 40 37 36 37 35 35 35
62 67 68 72 70 70 63 54 39 39 38 40 38 38 33 25 17 12 9 2 3 18 27 27 39 30 27 24 24 25 22 42 45 45 48 46 45 43 42 42 41 39 39 39 37 37 37
61 65 66 69 65 66 64 58 50 36 36 35 40 46 43 31 25 9 11 6 6 6 29 24 35 31 21 20 20 23 22 25 36 44 43 46 48 44 43 42 42 40 39 39 39 39 39
59 64 64 66 61 63 62 60 55 42 38 36 40 41 45 38 33 26 20 15 12 14 23 28 27 31 20 18 21 21 25 25 27 31 35 37 42 44 40 40 40 40 40 40 40 40 40
59 61 63 64 58 61 60 57 56 47 35 34 33 35 42 37 36 33 32 25 22 24 27 28 22 29 25 20 23 16 17 23 25 24 28 33 35 41 42 42 41 41 39 40 40 40 41
62 57 61 62 58 58 58 58 54 54 45 42 35 31 36 40 34 37 41 33 27 26 24 29 38 33 25 23 25 27 20 20 22 22 25 28 30 32 33 35 37 38 39 42 43 42 41
64 56 58 58 60 52 57 58 57 53 50 46 39 38 25 33 34 37 36 34 30 25 19 24 22 27 25 27 23 25 24 19 23 24 22 20 24 23 23 24 25 27 29 29 32 36 36
60 63 56 58 57 53 53 56 57 58 55 49 47 40 34 29 32 35 34 35 30 30 25 23 20 20 19 11 14 18 19 18 21 17 15 16 18 18 18 19 20 20 20 22 25 26 26
56 61 59 55 55 55 48 52 56 57 58 56 52 49 36 29 34 31 31 29 29 29 26 24 22 21 15 17 15 15 16 17 19 15 15 16 16 14 14 15 15 13 15 15 14 16 17
52 57 59 53 54 51 52 47 51 54 57 57 59 58 45 31 34 34 29 26 28 25 28 27 21 21 21 18 19 18 16 16 17 16 18 16 14 11 10 9 8 10 8 11 12 15 16
47 52 53 55 48 51 51 48 46 51 53 55 55 58 52 33 25 28 31 30 28 28 31 28 25 23 19 20 21 21 20 19 19 19 15 14 13 12 9 8 7 6 9 12 14 17 18
43 45 49 49 50 47 48 49 44 45 49 52 52 52 52 43 25 24 27 29 28 31 30 28 28 25 24 23 22 20 19 19 19 17 16 14 12 10 8 7 8 9 11 15 17 19 20
41 42 45 48 48 42 45 45 46 42 44 46 49 50 47 48 44 34 26 25 19 24 27 26 25 27 26 24 22 19 17 16 15 13 10 8 6 3 1 4 9 12 15 18 21 20 17
35 39 42 44 45 45 38 42 41 43 40 41 42 47 46 45 43 42 33 30 31 28 23 21 19 18 19 16 13 12 11 11 9 8 6 3 2 3 3 2 2 4 5 5 6 4 5
31 34 37 42 42 41 39 36 39 38 39 36 37 38 40 42 45 44 34 38 35 32 30 25 22 17 14 13 14 12 10 9 8 8 8 6 4 2 1 4 3 4 3 3 3 2 4
29 29 32 37 39 37 37 32 33 37 35 35 33 31 32 35 39 40 37 39 39 36 31 26 24 22 21 18 16 15 14 11 9 7 6 6 6 6 5 4 3 2 3 5 6 5 2
30 28 29 33 37 34 33 33 32 31 33 31 30 28 25 27 30 30 33 35 36 36 35 33 31 29 25 22 19 17 16 15 14 13 11 10 9 8 8 9 9 9 7 5 2 1 3
33 28 28 31 34 31 30 29 30 31 29 29 29 26 27 25 22 23 24 25 27 28 28 28 28 27 28 26 22 22 21 18 16 14 11 10 9 9 9 8 6 3 1 1 2 3 4
32 30 29 32 32 28 27 27 27 28 30 27 25 27 22 23 23 21 20 19 19 19 19 19 20 20 20 19 18 17 16 15 15 14 12 9 7 5 4 3 2 2 2 3 5 7 9
31 28 27 28 27 27 27 26 25 25 26 27 23 22 24 20 18 19 19 19 19 17 16 15 13 11 11 12 11 11 10 9 8 7 5 4 3 4 5 6 6 7 9 10 14 17 18
31 28 25 24 22 22 23 25 24 24 24 23 23 19 18 21 20 17 15 15 15 16 17 16 15 15 14 13 11 9 9 8 8 8 8 11 9 11 15 13 14 14 19 21 20 21 26
31 27 22 24 24 22 23 23 24 23 25 24 20 20 17 16 19 20 19 16 12 12 11 12 13 13 14 14 13 13 13 11 8 8 10 12 15 15 13 21 21 21 22 23 24 25 25
33 29 24 22 24 22 21 22 21 22 22 25 23 18 18 17 13 16 18 19 17 16 13 10 9 10 11 12 13 12 12 13 14 14 14 14 12 12 10 13 14 18 20 20 21 25 28
35 33 31 28 25 25 26 25 25 22 21 21 23 22 18 18 16 15 15 16 18 17 16 15 13 12 12 12 13 14 15 15 17 17 21 20 20 19 19 17 14 20 23 23 19 18 21
40 38 37 37 35 34 31 29 26 28 26 23 20 21 22 19 19 17 16 15 16 19 19 19 16 15 14 12 13 12 13 15 13 15 19 22 24 22 25 21 17 18 16 17 19 18 19
44 43 42 43 42 42 41 37 31 27 28 27 26 23 22 22 22 22 18 18 17 16 19 22 23 21 20 19 18 16 14 17 17 19 19 20 21 19 20 21 15 21 23 22 22 22 24
49 49 50 48 49 45 41 39 37 32 30 30 29 26 25 24 23 24 26 21 21 20 18 17 20 23 24 23 22 22 21 20 20 21 19 21 22 23 25 25 23 23 22 25 27 27 27
59 59 55 55 54 51 46 39 40 36 34 34 33 30 29 29 26 26 28 32 29 27 20 21 21 19 20 23 23 22 22 22 23 21 24 25 27 25 27 25 30 26 28 29 30 31 31
Wind_Direction
7 6 9 9 14 18 22 22 35 45 52 51 48 55 61 50 44 60 77 101 122 138 179 178 173 184 180 173 171 190 197 199 201 204 206 208 209 213 215 218 220 224 225 226 229 234 239
9 9 12 13 17 22 24 25 33 40 43 40 37 38 34 30 40 56 72 130 146 162 186 181 178 174 162 165 158 176 195 194 198 203 206 208 211 214 217 220 223 225 228 230 230 234 238
11 12 14 16 21 23 26 29 27 35 31 30 26 22 16 22 16 16 12 61 180 169 199 197 201 170 159 151 146 148 176 195 194 201 203 205 210 211 215 218 222 224 229 234 235 236 239
13 13 16 18 23 27 26 30 31 29 28 32 34 29 28 27 22 33 34 72 81 170 180 196 196 182 157 159 161 165 175 180 194 198 204 209 206 211 213 217 222 225 229 235 239 241 243
16 16 16 19 25 30 29 31 31 34 37 42 37 31 29 26 41 65 55 76 90 124 167 152 178 184 156 149 161 166 163 172 182 192 196 205 213 213 215 221 224 228 231 235 239 242 247
17 19 18 19 26 32 33 31 34 35 38 41 37 35 40 40 57 60 63 77 88 120 131 123 141 162 177 179 184 155 162 171 177 184 185 195 208 214 218 223 227 231 235 240 242 246 249
18 21 21 19 24 31 36 35 34 35 35 37 33 34 45 49 54 56 59 74 72 110 128 145 148 160 164 173 181 173 150 163 173 172 182 190 200 209 217 226 231 235 237 242 245 249 252
19 22 23 21 22 27 34 38 37 36 35 36 33 34 43 58 59 60 76 79 88 86 112 146 142 155 168 174 178 174 179 157 163 165 167 175 187 197 208 217 226 232 238 245 251 255 254
20 20 22 23 21 25 29 36 38 39 38 36 38 36 38 69 68 75 80 79 81 88 95 107 130 155 173 169 183 194 186 187 182 175 191 204 205 209 216 226 232 238 243 245 248 254 257
17 19 20 24 22 23 26 31 37 39 40 38 38 40 46 75 71 80 81 76 80 87 91 98 108 123 126 169 189 202 207 196 207 205 195 187 184 192 204 216 226 227 234 242 245 250 254
18 18 18 19 23 23 24 28 34 38 40 41 42 40 48 86 77 69 73 72 71 75 86 86 101 119 112 122 129 154 165 179 180 180 167 161 161 159 167 176 183 215 219 232 238 246 254
19 17 17 19 19 24 23 27 32 37 40 42 45 48 48 70 76 68 66 60 68 72 77 81 84 98 119 112 91 111 121 131 142 151 150 147 146 148 148 155 174 204 221 234 243 250 253
13 18 18 18 19 21 25 23 30 35 39 42 44 50 54 58 73 61 64 64 66 65 76 81 81 93 100 112 113 110 111 119 125 134 136 136 137 139 153 184 210 235 251 258 259 265 268
4 13 18 17 19 19 24 24 25 34 39 42 46 48 50 57 61 63 61 60 56 70 82 87 86 92 98 103 105 104 107 110 118 123 131 133 126 132 329 287 281 281 277 273 275 279 283
360 5 14 18 19 20 21 26 26 28 36 43 46 51 52 54 61 61 61 62 67 73 74 73 81 88 94 94 91 97 103 103 102 98 102 96 156 206 215 215 281 278 278 272 290 290 264
355 359 6 12 19 19 19 20 25 30 29 38 45 48 51 52 54 60 60 59 61 63 68 72 78 79 80 83 83 84 78 83 83 95 99 80 88 101 291 262 239 229 249 264 271 237 172
347 352 358 6 9 19 18 17 18 23 30 31 40 46 46 49 53 54 52 58 60 61 61 65 69 75 78 80 82 83 84 83 75 73 76 92 98 100 106 114 138 161 150 125 135 146 183
339 343 351 356 3 10 20 18 13 13 20 27 31 40 46 45 47 51 55 55 57 60 63 65 66 65 66 70 74 77 78 77 77 77 76 80 87 95 99 98 99 109 118 117 110 294 302
330 335 341 345 355 0 10 19 18 16 9 18 25 30 34 42 43 44 42 46 54 55 56 60 64 67 69 68 67 69 69 69 71 70 71 77 85 86 85 84 87 86 120 229 249 259 261
324 328 336 339 344 354 360 4 13 17 13 10 12 23 28 28 35 40 37 37 33 37 48 54 54 55 54 59 62 64 65 65 62 60 64 77 85 73 55 36 56 44 8 335 324 316 310
315 320 327 337 342 346 353 355 358 8 16 11 9 4 16 24 25 25 34 34 35 30 25 24 30 35 37 33 33 32 31 31 35 37 36 26 351 333 327 321 325 329 322 320 318 311 321
309 313 318 328 337 346 350 350 351 358 3 13 9 4 359 6 21 20 13 17 26 29 25 25 22 15 13 12 8 6 4 351 336 328 323 317 318 320 313 318 316 318 312 314 315 313 318
299 301 308 313 324 330 338 343 342 347 353 357 6 3 0 353 352 357 12 7 356 360 12 14 12 12 12 10 9 9 3 358 339 318 307 301 302 304 301 307 312 314 307 312 319 319 317
293 296 299 302 314 320 328 333 335 338 341 346 351 357 354 356 346 337 339 346 359 355 339 340 345 342 350 348 348 343 346 336 335 329 329 323 321 315 315 314 318 312 310 316 317 316 315
285 289 292 294 297 299 310 316 320 322 328 332 334 337 340 342 346 340 329 318 325 335 345 348 343 336 335 332 329 324 323 323 324 323 318 315 314 311 308 305 311 298 301 310 320 320 324
284 286 289 292 293 293 292 295 303 309 312 315 317 319 322 325 330 333 338 328 313 310 315 317 325 330 336 343 346 349 338 330 326 320 315 316 316 315 309 315 314 307 312 317 322 325 325
282 284 286 290 293 297 297 291 289 295 302 304 305 307 309 313 316 319 322 318 320 315 303 302 305 308 309 314 322 322 326 325 324 327 322 326 325 326 325 323 318 309 317 314 313 318 326
274 279 283 286 290 295 293 297 292 284 287 297 296 299 302 302 304 304 310 313 310 313 307 296 299 301 300 299 300 307 315 318 314 319 311 315 314 315 314 316 309 310 314 314 313 315 318
272 275 276 280 283 286 287 290 292 288 283 282 289 288 292 297 297 294 300 302 303 310 290 301 297 293 295 294 296 295 295 296 298 307 306 312 307 301 294 307 302 313 318 319 317 316 313
Height
5755 5742 5727 5710 5692 5673 5656 5641 5628 5617 5609 5604 5600 5596 5594 5589 5586 5586 5585 5585 5587 5587 5594 5598 5605 5616 5624 5630 5638 5646 5655 5666 5678 5690 5702 5712 5722 5731 5739 5746 5751 5757 5762 5767 5772 5777 5780
5755 5743 5729 5712 5695 5678 5662 5649 5639 5630 5622 5616 5610 5606 5602 5597 5594 5591 5590 5589 5590 5590 5590 5600 5610 5620 5628 5633 5640 5647 5653 5663 5675 5688 5699 5709 5719 5727 5736 5742 5748 5755 5759 5763 5768 5771 5775
5757 5745 5732 5716 5701 5684 5669 5656 5646 5638 5631 5625 5620 5613 5607 5601 5596 5592 5591 5593 5594 5595 5591 5598 5607 5619 5629 5638 5643 5649 5655 5665 5675 5687 5696 5706 5716 5724 5730 5736 5742 5748 5753 5758 5763 5766 5770
5760 5748 5735 5721 5708 5692 5676 5663 5652 5644 5638 5633 5626 5619 5614 5606 5598 5594 5593 5594 5595 5595 5599 5600 5608 5619 5629 5636 5644 5651 5659 5665 5673 5682 5693 5702 5710 5717 5724 5731 5737 5742 5748 5753 5757 5761 5764
5763 5751 5739 5726 5714 5700 5685 5671 5660 5650 5644 5639 5633 5628 5619 5611 5603 5599 5598 5597 5596 5597 5602 5609 5616 5626 5635 5640 5649 5657 5661 5667 5675 5682 5690 5698 5707 5714 5722 5728 5733 5738 5743 5747 5751 5755 5757
5765 5756 5745 5732 5720 5707 5693 5681 5668 5659 5651 5646 5640 5634 5629 5621 5614 5609 5606 5605 5605 5607 5613 5617 5626 5635 5642 5647 5656 5660 5664 5670 5676 5683 5689 5696 5704 5711 5717 5724 5730 5734 5738 5742 5746 5750 5750
5770 5760 5750 5739 5726 5715 5702 5690 5677 5667 5658 5652 5646 5641 5637 5631 5627 5620 5615 5617 5624 5625 5625 5632 5634 5641 5647 5653 5659 5662 5669 5673 5678 5684 5690 5695 5703 5709 5715 5720 5725 5729 5732 5735 5738 5742 5744
5775 5765 5755 5745 5733 5722 5711 5700 5688 5676 5667 5659 5653 5648 5644 5641 5637 5633 5630 5633 5632 5636 5638 5640 5646 5652 5657 5661 5664 5668 5673 5679 5681 5685 5692 5699 5702 5707 5712 5716 5721 5724 5727 5730 5733 5735 5738
5780 5771 5762 5751 5740 5731 5720 5709 5698 5687 5677 5668 5661 5654 5651 5648 5647 5644 5644 5642 5642 5642 5645 5648 5652 5656 5661 5665 5665 5668 5673 5679 5683 5689 5694 5698 5703 5707 5711 5714 5718 5721 5724 5727 5729 5730 5732
5785 5776 5767 5758 5748 5738 5729 5719 5708 5698 5688 5678 5669 5662 5656 5655 5656 5654 5653 5652 5651 5651 5652 5654 5657 5660 5663 5666 5668 5671 5675 5682 5685 5688 5692 5697 5701 5705 5708 5712 5716 5718 5720 5723 5725 5726 5727
5791 5782 5773 5764 5756 5746 5737 5729 5718 5709 5700 5690 5681 5673 5665 5663 5664 5664 5663 5661 5660 5660 5658 5661 5662 5664 5667 5670 5673 5674 5677 5682 5687 5691 5696 5699 5702 5705 5708 5712 5715 5716 5718 5720 5721 5721 5722
5795 5787 5778 5770 5761 5753 5745 5737 5728 5720 5712 5703 5695 5686 5679 5675 5675 5675 5673 5671 5669 5670 5665 5667 5668 5669 5673 5674 5676 5679 5682 5686 5690 5695 5697 5700 5703 5706 5709 5711 5713 5715 5716 5717 5717 5718 5719
5799 5792 5784 5775 5767 5759 5751 5744 5737 5730 5723 5714 5707 5700 5693 5688 5686 5684 5682 5680 5680 5677 5675 5675 5675 5676 5678 5680 5682 5685 5687 5690 5693 5697 5699 5701 5704 5706 5708 5710 5711 5712 5713 5713 5714 5714 5715
5801 5796 5788 5781 5773 5765 5758 5750 5745 5739 5733 5726 5719 5711 5706 5700 5696 5693 5692 5687 5690 5684 5683 5684 5685 5686 5686 5687 5688 5690 5692 5694 5696 5699 5700 5702 5705 5705 5707 5708 5708 5709 5710 5710 5708 5709 5709
5803 5798 5793 5785 5778 5771 5764 5757 5750 5746 5741 5735 5730 5723 5719 5714 5706 5702 5700 5701 5693 5690 5690 5692 5693 5694 5694 5695 5697 5697 5697 5699 5700 5701 5703 5703 5704 5704 5705 5706 5707 5706 5706 5707 5706 5706 5706
5804 5800 5795 5789 5782 5776 5769 5763 5756 5751 5747 5742 5738 5733 5729 5724 5718 5712 5713 5708 5703 5700 5698 5697 5697 5698 5700 5700 5701 5701 5702 5702 5702 5702 5703 5704 5705 5705 5706 5707 5706 5705 5706 5705 5704 5704 5704
5804 5800 5796 5791 5785 5780 5774 5768 5762 5757 5752 5748 5743 5741 5738 5733 5727 5724 5723 5717 5712 5710 5708 5707 5705 5704 5703 5703 5704 5704 5705 5705 5705 5705 5705 5704 5705 5706 5706 5706 5706 5706 5704 5704 5703 5704 5704
5803 5800 5797 5792 5787 5781 5777 5772 5767 5762 5757 5753 5748 5744 5741 5739 5736 5733 5729 5726 5723 5720 5718 5717 5715 5714 5712 5710 5709 5708 5708 5708 5708 5708 5708 5708 5707 5706 5706 5705 5705 5705 5705 5706 5706 5706 5704
5802 5799 5796 5792 5788 5782 5778 5774 5769 5765 5761 5757 5753 5749 5746 5741 5741 5737 5736 5733 5730 5728 5727 5724 5723 5721 5719 5718 5718 5716 5715 5714 5712 5712 5712 5711 5711 5710 5709 5710 5708 5707 5706 5705 5704 5702 5702
5799 5797 5795 5791 5787 5783 5778 5774 5770 5767 5763 5760 5757 5754 5750 5747 5743 5740 5738 5737 5735 5733 5731 5729 5728 5726 5724 5723 5721 5720 5719 5719 5717 5716 5715 5714 5712 5712 5712 5710 5709 5708 5706 5705 5704 5702 5701
5796 5794 5792 5788 5785 5782 5778 5774 5770 5767 5764 5762 5758 5756 5753 5750 5747 5745 5741 5738 5737 5736 5735 5733 5731 5730 5728 5726 5725 5723 5721 5720 5719 5717 5716 5715 5713 5712 5711 5709 5708 5707 5705 5703 5701 5698 5696
5791 5790 5788 5785 5782 5780 5777 5774 5770 5767 5764 5761 5759 5756 5753 5752 5749 5746 5744 5741 5738 5737 5736 5735 5734 5732 5730 5729 5728 5726 5723 5721 5719 5718 5716 5714 5713 5711 5708 5707 5706 5704 5701 5699 5697 5696 5692
5784 5784 5783 5782 5779 5777 5775 5772 5768 5765 5764 5762 5759 5756 5754 5751 5750 5748 5745 5743 5740 5738 5735 5734 5733 5732 5731 5729 5727 5725 5723 5722 5720 5718 5716 5714 5712 5710 5709 5705 5703 5702 5699 5696 5693 5690 5688
5775 5776 5776 5776 5775 5773 5771 5769 5766 5763 5761 5760 5758 5755 5753 5751 5748 5747 5746 5743 5740 5737 5735 5733 5730 5728 5729 5728 5727 5725 5723 5721 5719 5716 5714 5712 5709 5707 5706 5703 5703 5698 5694 5693 5690 5687 5682
5767 5767 5767 5768 5769 5768 5767 5766 5763 5760 5758 5755 5755 5754 5751 5749 5747 5745 5743 5741 5740 5737 5734 5732 5730 5727 5725 5723 5723 5722 5720 5718 5715 5713 5710 5708 5706 5704 5701 5700 5699 5693 5690 5688 5685 5683 5678
5758 5759 5758 5758 5759 5759 5759 5760 5758 5757 5754 5751 5748 5748 5747 5745 5744 5742 5740 5739 5737 5735 5733 5730 5728 5725 5723 5721 5719 5717 5716 5713 5713 5711 5707 5704 5701 5701 5696 5695 5692 5688 5686 5684 5681 5678 5674
5747 5747 5749 5749 5748 5749 5749 5749 5750 5748 5749 5747 5744 5742 5740 5739 5740 5738 5736 5734 5733 5731 5729 5727 5725 5723 5720 5718 5716 5715 5713 5710 5708 5706 5704 5701 5698 5695 5693 5690 5691 5686 5683 5680 5678 5677 5671
5734 5735 5737 5737 5738 5739 5740 5740 5740 5740 5739 5739 5739 5737 5735 5732 5731 5732 5731 5729 5728 5726 5724 5722 5721 5717 5716 5713 5711 5709 5708 5706 5704 5702 5699 5697 5693 5690 5687 5684 5683 5682 5680 5677 5674 5669 5665
5718 5718 5722 5724 5725 5727 5730 5731 5731 5730 5731 5730 5730 5730 5728 5727 5725 5722 5722 5724 5722 5719 5719 5716 5714 5711 5709 5707 5705 5702 5700 5698 5697 5696 5693 5690 5687 5683 5680 5680 5673 5673 5672 5670 5667 5663 5659